Tracking 30995 objects as of 6-Jul-2025
HD Live streaming from Space Station
objects crossing your sky now

COSMOS 894

Track COSMOS 894 now!
10-day predictions
COSMOS 894 is classified as:


NORAD ID: 9846
Int'l Code: 1977-013A
Perigee: 968.8 km
Apogee: 1,014.8 km
Inclination: 82.9 °
Period: 104.8 minutes
Semi major axis: 7362 km
RCS: 3.5762 m2 (large)
Launch date: February 21, 1977
Source: Commonwealth of Independent States (former USSR) (CIS)
Launch site: PLESETSK MISSILE AND SPACE COMPLEX (PKMTR)
Your satellite tracking list
Your tracking list is empty




NASA's NSSDC Master Catalog

Two Line Element Set (TLE):
1 09846U 77013A   25186.60870517  .00000070  00000-0  58023-4 0  9990
2 09846  82.9442 353.5228 0031272  94.3821 337.4710 13.74168748424574
Source of the keplerian elements: AFSPC